1508594401.02,43211,13.88,73560.3,-1.01,-3.55,-2.91,0,*5C
1508594402.28,43212,13.88,73564.5,-1.01,-3.43,-2.99,0,*50
1508594403.5,43213,13.88,73570.0,-1.03,-3.47,-3.07,0,*51
1508594404.7,43214,13.88,73566.5,-1.03,-3.39,-3.07,0,*5F
1508594405.9,43215,13.88,73566.8,-1.03,-3.15,-2.95,0,*5A
1508594407.1,43216,13.88,73566.0,-1.03,-3.03,-2.91,0,*5A
1508594408.29,43217,13.88,73564.3,-1.03,-3.03,-2.91,0,*5B
1508594409.48,43218,13.88,73566.8,-1.03,-2.91,-2.83,0,*5D
1508594410.68,43219,13.88,73572.5,-1.03,-2.95,-2.91,0,*5B
1508594411.88,43220,13.88,73568.8,-1.03,-3.07,-3.07,0,*55
1508594413.07,43221,13.88,73562.5,-1.03,-3.19,-3.15,0,*58
1508594414.29,43222,13.88,73556.8,-1.05,-3.15,-3.15,0,*51
1508594415.51,43223,13.88,73554.0,-1.05,-3.31,-3.31,0,*50
1508594416.74,43224,13.88,73554.3,-1.05,-3.27,-3.27,0,*57
1508594417.96,43225,13.88,73560.3,-1.05,-3.19,-3.27,0,*5B
1508594419.16,43226,13.88,73560.5,-1.07,-3.11,-3.11,0,*57
1508594420.38,43227,13.88,73558.8,-1.05,-3.03,-3.03,0,*54
1508594421.61,43228,13.88,73558.0,-1.05,-2.95,-3.07,0,*51
1508594422.83,43229,13.88,73552.0,-1.05,-3.03,-3.19,0,*51
1508594424.03,43230,13.88,73556.8,-1.07,-2.95,-3.19,0,*55
1508594425.22,43231,13.88,73556.0,-1.07,-2.99,-3.23,0,*51
1508594426.44,43232,13.88,73562.8,-1.05,-3.15,-3.31,0,*56
1508594427.69,43233,13.88,73558.3,-1.05,-3.31,-3.43,0,*54
1508594428.91,43234,13.88,73558.8,-1.07,-3.31,-3.47,0,*55
1508594430.13,43235,13.88,73560.8,-1.07,-3.35,-3.47,0,*50
1508594431.35,43236,13.88,73562.0,-1.05,-3.07,-3.27,0,*56
1508594432.58,43237,13.88,73564.8,-1.07,-2.71,-3.07,0,*57
1508594433.82,43238,13.88,73566.3,-1.05,-2.63,-3.07,0,*59
1508594435.07,43239,13.88,73570.8,-1.05,-2.71,-3.19,0,*54
1508594436.29,43240,13.88,73566.3,-1.07,-2.71,-3.35,0,*56
1508594437.55,43241,13.88,73570.3,-1.05,-2.71,-3.67,0,*52
1508594438.77,43242,13.88,73566.8,-1.05,-3.03,-3.95,0,*58
1508594439.97,43243,13.88,73566.8,-1.03,-3.07,-4.05,0,*55
1508594441.19,43244,13.88,73570.0,-1.05,-3.19,-4.33,0,*5E
1508594442.46,43245,13.88,73574.0,-1.05,-3.47,-4.73,0,*50
1508594443.73,43246,13.88,73570.0,-1.05,-3.79,-5.27,0,*5E
1508594444.95,43247,13.88,73570.0,-1.03,-4.21,-5.73,0,*52
1508594446.16,43248,13.88,73570.0,-1.03,-4.69,-6.01,0,*57
1508594447.38,43249,13.88,73570.5,-1.03,-4.85,-6.13,0,*57
1508594448.59,43250,13.88,73572.8,-1.03,-4.99,-6.27,0,*55
1508594449.84,43251,13.88,73572.5,-1.05,-5.23,-6.43,0,*50
1508594451.06,43252,13.88,73566.5,-1.05,-5.35,-6.77,0,*53
1508594452.31,43253,13.88,73568.5,-1.05,-5.61,-6.85,0,*5E
1508594453.54,43254,13.88,73570.3,-1.03,-5.93,-7.23,0,*5F
1508594454.76,43255,13.88,73574.8,-1.03,-6.01,-7.39,0,*5D
1508594456.02,43256,13.88,73574.5,-1.01,-6.09,-7.73,0,*5A
1508594457.23,43257,13.88,73574.3,-1.03,-6.27,-8.25,0,*59
1508594458.47,43258,13.88,73574.8,-1.03,-6.63,-8.81,0,*58
1508594459.69,43259,13.88,73574.5,-1.03,-6.97,-9.05,0,*5F
1508594460.88,43260,13.88,73574.3,-1.03,-7.49,-9.31,0,*50
1508594462.13,43261,13.88,73574.5,-1.01,-7.95,-9.27,0,*55
1508594463.35,43262,13.88,73576.5,-1.01,-8.25,-9.27,0,*52
1508594464.58,43263,13.88,73576.3,-1.01,-8.37,-9.27,0,*50
1508594465.83,43264,13.88,73572.8,-1.01,-8.63,-9.45,0,*52
1508594467.06,43265,13.88,73574.8,-1.01,-9.27,-9.27,0,*56
1508594468.31,43266,13.88,73578.3,-1.01,-9.71,-9.15,0,*57
1508594469.53,43267,13.88,73572.8,-1.01,-9.75,-9.05,0,*53
1508594470.79,43268,13.88,73570.5,-1.01,-9.57,-8.81,0,*51
1508594472.03,43269,13.88,73574.0,-1.01,-9.45,-8.67,0,*5B
1508594473.28,43270,13.88,73568.0,-1.01,-9.15,-8.75,0,*55
1508594474.5,43271,13.88,73568.8,-1.01,-8.67,-8.93,0,*58
1508594475.7,43272,13.88,73570.5,-1.03,-8.59,-9.31,0,*5D
1508594476.9,43273,13.88,73568.3,-1.03,-8.55,-9.67,0,*53
1508594478.12,43274,13.88,73568.0,-1.01,-8.55,-9.89,0,*56
1508594479.36,43275,13.88,73570.8,-1.01,-8.67,-10.15,0,*6B
1508594480.6,43276,13.88,73570.5,-1.01,-9.05,-10.31,0,*6B
1508594481.86,43277,13.88,73572.3,-1.01,-9.15,-10.09,0,*60
1508594483.05,43278,13.88,73568.8,-0.99,-9.31,-9.71,0,*6E
1508594484.29,43279,13.88,73570.8,-0.99,-9.61,-9.37,0,*68
1508594485.49,43280,13.88,73574.8,-0.99,-9.71,-9.01,0,*6A
1508594486.7,43281,13.88,73572.8,-0.99,-9.83,-8.75,0,*64
1508594487.91,43282,13.88,73568.5,-0.99,-9.83,-8.45,0,*64
1508594489.12,43283,13.88,73568.5,-0.97,-9.67,-8.17,0,*66
1508594490.36,43284,13.88,73568.3,-0.99,-9.49,-7.95,0,*66
1508594491.6,43285,13.88,73568.3,-0.97,-9.27,-7.69,0,*62
1508594492.87,43286,13.88,73568.5,-0.97,-9.15,-7.57,0,*6D
1508594494.12,43287,13.88,73564.5,-0.97,-8.97,-7.35,0,*63
1508594495.32,43288,13.88,73570.5,-0.99,-8.93,-7.15,0,*64
1508594496.51,43289,13.88,73574.0,-0.99,-8.67,-6.73,0,*6F
1508594497.74,43290,13.88,73570.0,-0.97,-8.45,-6.23,0,*6C
1508594499.01,43291,13.88,73570.3,-0.97,-7.95,-5.77,0,*6D
1508594500.27,43292,13.88,73576.8,-0.97,-7.77,-5.65,0,*61
1508594501.49,43293,13.88,73572.3,-0.97,-7.15,-5.51,0,*63
1508594502.69,43294,13.88,73574.0,-0.95,-6.55,-5.51,0,*63
1508594503.91,43295,13.88,73576.0,-0.95,-6.27,-5.51,0,*67
1508594505.15,43296,13.88,73576.3,-0.97,-6.05,-5.93,0,*68
1508594506.36,43297,13.88,73574.5,-0.97,-6.05,-6.35,0,*66
1508594507.6,43298,13.88,73578.8,-0.97,-5.97,-6.97,0,*69
1508594508.82,43299,13.88,73572.8,-0.97,-6.09,-7.49,0,*6E
1508594510.06,43300,13.88,73570.0,-0.95,-6.27,-7.43,0,*6B
1508594511.27,43301,13.88,73570.3,-0.97,-6.47,-7.49,0,*64
1508594512.52,43302,13.88,73572.8,-0.97,-6.73,-8.07,0,*65
1508594513.75,43303,13.88,73572.8,-0.97,-7.91,-8.75,0,*6C
1508594514.98,43304,13.88,73576.8,-0.97,-9.01,-9.01,0,*6E
1508594516.17,43305,13.88,73576.5,-0.99,-9.23,-8.63,0,*64
1508594517.45,43306,13.88,73564.8,-0.97,-9.15,-8.07,0,*6E
1508594518.64,43307,13.88,73556.3,-0.99,-9.19,-7.83,0,*6E
1508594519.87,43308,13.88,73552.3,-0.99,-9.05,-7.43,0,*60
1508594521.07,43309,13.88,73552.0,-0.99,-8.93,-7.15,0,*6C
1508594522.27,43310,13.88,73552.5,-0.99,-8.55,-6.47,0,*68
1508594523.54,43311,13.88,73550.5,-0.97,-8.07,-6.19,0,*6B
1508594524.79,43312,13.88,73556.8,-0.99,-7.57,-5.81,0,*6E
1508594526.04,43313,13.88,73552.3,-1.01,-6.89,-5.69,0,*5B
1508594527.28,43314,13.88,73546.8,-1.01,-6.23,-5.97,0,*5D
1508594528.53,43315,13.88,73550.3,-1.01,-5.81,-6.89,0,*5B
1508594529.78,43316,13.88,73552.3,-1.01,-5.73,-7.83,0,*5E
1508594531.01,43317,13.88,73564.5,-1.01,-6.09,-8.37,0,*51
1508594532.21,43318,13.88,73566.8,-1.03,-6.55,-8.85,0,*5C
1508594533.44,43319,13.88,73560.0,-1.01,-6.81,-9.01,0,*5B
1508594534.66,43320,13.88,73564.0,-1.01,-7.15,-9.31,0,*5E
1508594535.91,43321,13.88,73562.5,-1.01,-7.53,-9.61,0,*58
1508594537.16,43322,13.88,73564.3,-1.01,-7.73,-9.71,0,*58
1508594538.41,43323,13.88,73566.8,-1.01,-7.99,-9.89,0,*5A
1508594539.64,43324,13.88,73570.3,-1.01,-8.55,-10.31,0,*69
1508594540.88,43325,13.88,73574.5,-1.01,-9.01,-10.53,0,*6C
1508594542.18,43326,13.88,73564.3,-1.01,-9.15,-10.41,0,*69
1508594543.41,43327,13.88,73574.0,-1.03,-9.41,-10.45,0,*6F
1508594544.67,43328,13.88,73568.5,-1.01,-9.75,-10.79,0,*6A
1508594545.93,43329,13.88,73562.5,-1.01,-10.15,-10.71,0,*5D
1508594547.2,43330,13.88,73570.5,-1.01,-10.19,-10.67,0,*5E
1508594548.47,43331,13.88,73566.3,-1.01,-10.19,-10.41,0,*5B
1508594549.69,43332,13.88,73566.3,-1.03,-10.19,-10.15,0,*5B
1508594550.98,43333,13.88,73562.5,-1.01,-10.41,-10.41,0,*54
1508594552.22,43334,13.88,73562.0,-1.01,-10.45,-10.27,0,*57
1508594553.44,43335,13.88,73564.0,-1.01,-10.09,-9.97,0,*6D
1508594554.67,43336,13.88,73568.3,-1.01,-10.15,-9.89,0,*6C
1508594555.91,43337,13.88,73572.3,-1.01,-9.75,-9.57,0,*50
1508594557.19,43338,13.88,73574.8,-1.01,-9.45,-9.15,0,*5A
1508594558.44,43339,13.88,73570.3,-1.01,-9.19,-9.15,0,*52
1508594559.64,43340,13.88,73574.8,-1.03,-8.71,-9.19,0,*5D
1508594560.86,43341,13.88,73576.3,-1.03,-8.51,-9.23,0,*57
1508594562.09,43342,13.88,73574.0,-1.03,-8.37,-9.37,0,*51
1508594563.33,43343,13.88,73576.0,-1.01,-8.07,-8.75,0,*56
1508594564.56,43344,13.88,73574.3,-1.03,-7.57,-8.41,0,*5E
1508594565.8,43345,13.88,73578.8,-1.01,-7.39,-8.33,0,*50
1508594567.04,43346,13.88,73576.0,-1.01,-7.57,-8.67,0,*5A
1508594568.28,43347,13.88,73576.8,-1.01,-7.87,-8.81,0,*5E
1508594569.53,43348,13.88,73578.8,-1.01,-7.99,-8.89,0,*56
1508594570.79,43349,13.88,73576.8,-1.01,-8.07,-9.01,0,*5E
1508594572.01,43350,13.88,73580.0,-0.99,-8.11,-9.05,0,*65
1508594573.25,43351,13.88,73580.8,-0.97,-7.91,-8.85,0,*64
1508594574.46,43352,13.88,73584.3,-0.99,-8.25,-9.49,0,*68
1508594575.68,43353,13.88,73578.3,-0.99,-8.51,-9.89,0,*66
1508594576.92,43354,13.88,73582.3,-0.99,-8.51,-10.19,0,*50
1508594578.17,43355,13.88,73576.3,-0.99,-8.81,-10.41,0,*51
1508594579.41,43356,13.88,73578.0,-0.97,-8.85,-10.35,0,*5B
1508594580.66,43357,13.88,73578.5,-0.97,-9.11,-10.49,0,*5D
1508594581.89,43358,13.88,73576.3,-0.99,-9.27,-10.67,0,*55
1508594583.11,43359,13.88,73580.0,-0.99,-9.49,-10.93,0,*57
1508594584.33,43360,13.88,73584.8,-0.99,-9.57,-10.97,0,*56
1508594585.58,43361,13.88,73582.0,-0.99,-9.61,-10.71,0,*5A
1508594586.8,43362,13.88,73586.5,-0.99,-9.61,-10.57,0,*5D
1508594588.07,43363,13.88,73584.8,-0.97,-9.83,-10.41,0,*59
1508594589.26,43364,13.88,73586.8,-0.99,-9.97,-10.45,0,*51
1508594590.51,43365,13.88,73580.3,-0.97,-10.05,-10.41,0,*69
1508594591.73,43366,13.88,73582.5,-0.97,-10.05,-10.23,0,*6E
1508594592.95,43367,13.88,73582.3,-0.97,-10.23,-10.09,0,*63
1508594594.18,43368,13.88,73580.5,-0.97,-10.23,-10.05,0,*60
1508594595.38,43369,13.88,73580.8,-0.99,-10.31,-9.75,0,*53
1508594596.63,43370,13.88,73582.8,-0.99,-10.41,-9.49,0,*53
1508594597.85,43371,13.88,73578.3,-0.97,-10.35,-9.23,0,*53
1508594599.08,43372,13.88,73580.8,-0.97,-10.35,-8.89,0,*51
1508594600.29,43373,13.88,73580.5,-0.97,-10.35,-8.63,0,*54
1508594601.5,43374,13.88,73576.5,-0.95,-10.31,-8.37,0,*54
1508594602.72,43375,13.88,73576.8,-0.95,-10.31,-8.11,0,*51
1508594603.93,43376,13.88,73576.8,-0.95,-10.09,-7.77,0,*56
1508594605.14,43377,13.88,73576.5,-0.95,-9.89,-7.35,0,*61
1508594606.36,43378,13.88,73576.5,-0.93,-9.67,-7.19,0,*66
1508594607.62,43379,13.88,73578.3,-0.93,-9.37,-7.05,0,*6F
1508594608.84,43380,13.88,73578.5,-0.95,-8.97,-6.97,0,*6E
1508594610.05,43381,13.88,73578.0,-0.93,-8.67,-7.11,0,*69
1508594611.27,43382,13.88,73580.0,-0.93,-8.41,-7.19,0,*66
1508594612.52,43383,13.88,73578.5,-0.93,-8.17,-7.61,0,*6B
1508594613.76,43384,13.88,73576.8,-0.95,-8.11,-7.91,0,*63
1508594615.02,43385,13.88,73576.8,-0.93,-7.99,-8.03,0,*6F
1508594616.23,43386,13.88,73574.5,-0.95,-8.03,-8.29,0,*6E
1508594617.44,43387,13.88,73574.5,-0.93,-8.29,-8.59,0,*66
1508594618.65,43388,13.88,73574.5,-0.93,-8.59,-8.97,0,*6C
1508594619.84,43389,13.88,73572.5,-0.95,-8.67,-9.05,0,*6C
1508594621.04,43390,13.88,73574.0,-0.95,-8.93,-9.19,0,*62
1508594622.26,43391,13.88,73574.8,-0.95,-9.05,-9.11,0,*65
1508594623.46,43392,13.88,73572.0,-0.95,-9.05,-8.97,0,*69
1508594624.67,43393,13.88,73570.8,-0.93,-8.93,-8.55,0,*6E
1508594625.89,43394,13.88,73572.5,-0.95,-8.59,-7.73,0,*62
1508594627.14,43395,13.88,73570.3,-0.97,-8.07,-7.11,0,*6E
1508594628.38,43396,13.88,73574.5,-0.97,-7.65,-6.59,0,*6B
1508594629.62,43397,13.88,73572.3,-0.97,-7.65,-6.43,0,*61
1508594630.84,43398,13.88,73568.3,-0.97,-7.23,-6.09,0,*62
1508594632.05,43399,13.88,73574.0,-0.97,-7.23,-5.97,0,*67
1508594633.29,43400,13.88,73570.8,-0.97,-7.15,-5.81,0,*62
1508594634.53,43401,13.88,73572.5,-0.95,-7.05,-5.77,0,*69
1508594635.78,43402,13.88,73568.8,-0.95,-7.05,-5.65,0,*69
1508594636.99,43403,13.88,73568.0,-0.95,-7.19,-5.73,0,*62
1508594638.24,43404,13.88,73568.0,-0.93,-7.11,-5.61,0,*68
1508594639.47,43405,13.88,73574.8,-0.95,-6.55,-5.27,0,*6C
1508594640.72,43406,13.88,73574.0,-0.93,-6.01,-5.23,0,*6C
1508594641.94,43407,13.88,73570.5,-0.95,-5.51,-5.03,0,*6F
1508594643.21,43408,13.88,73570.0,-0.93,-5.03,-4.93,0,*69
1508594644.47,43409,13.88,73568.3,-0.93,-4.73,-4.85,0,*69
1508594645.71,43410,13.88,73570.3,-0.93,-4.69,-4.57,0,*65
1508594646.9,43411,13.88,73572.3,-0.91,-4.45,-4.21,0,*69
1508594648.09,43412,13.88,73570.8,-0.95,-4.21,-3.83,0,*63
1508594649.31,43413,13.88,73568.8,-0.91,-3.91,-3.51,0,*65
1508594650.53,43414,13.88,73570.0,-0.91,-3.67,-3.31,0,*6D
1508594651.74,43415,13.88,73568.5,-0.91,-3.43,-3.15,0,*6C
1508594652.93,43416,13.88,73568.8,-0.91,-3.23,-3.03,0,*6E
1508594654.13,43417,13.88,73570.8,-0.89,-3.23,-3.23,0,*64
1508594655.31,43418,13.88,73570.8,-0.91,-2.99,-3.31,0,*61
1508594656.52,43419,13.88,73572.3,-0.91,-3.03,-3.51,0,*64
1508594657.74,43420,13.88,73574.3,-0.91,-3.15,-3.63,0,*68
1508594658.97,43421,13.88,73576.5,-0.89,-3.15,-3.67,0,*64
1508594660.16,43422,13.88,73574.3,-0.91,-3.15,-3.79,0,*61
1508594661.38,43423,13.88,73574.0,-0.91,-3.31,-4.01,0,*6E
1508594662.6,43424,13.88,73576.3,-0.91,-3.55,-3.87,0,*62
1508594663.83,43425,13.88,73574.5,-0.91,-3.51,-3.67,0,*69
1508594665.07,43426,13.88,73574.8,-0.89,-3.43,-3.75,0,*63
1508594666.31,43427,13.88,73576.0,-0.89,-3.63,-3.87,0,*6D
1508594667.55,43428,13.88,73574.0,-0.89,-3.63,-3.91,0,*65
1508594668.81,43429,13.88,73572.0,-0.85,-3.63,-4.01,0,*66
1508594670.06,43430,13.88,73578.8,-0.85,-3.75,-4.01,0,*69
1508594671.3,43431,13.88,73580.0,-0.85,-3.63,-4.25,0,*69
1508594672.52,43432,13.88,73578.0,-0.85,-3.75,-4.65,0,*69
1508594673.77,43433,13.88,73586.0,-0.89,-3.87,-5.19,0,*63
1508594675.01,43434,13.88,73580.3,-0.89,-4.01,-5.47,0,*66
1508594676.25,43435,13.88,73582.3,-0.89,-4.17,-5.85,0,*6E
1508594677.46,43436,13.88,73580.8,-0.85,-4.29,-6.05,0,*67
1508594678.69,43437,13.88,73584.8,-0.85,-4.49,-6.63,0,*60
1508594679.94,43438,13.88,73586.5,-0.83,-5.23,-8.17,0,*69
1508594681.18,43439,13.88,73584.5,-0.85,-6.77,-9.83,0,*60
1508594682.43,43440,13.88,73580.0,-0.83,-7.73,-9.89,0,*67
1508594683.64,43441,13.88,73578.0,-0.89,-8.67,-9.97,0,*69
1508594684.88,43442,13.88,73576.8,-0.89,-9.19,-9.45,0,*6D
1508594686.13,43443,13.88,73572.0,-0.91,-9.15,-9.15,0,*6C
1508594687.38,43444,13.88,73568.3,-0.91,-9.15,-9.15,0,*6B
1508594688.6,43445,13.88,73570.3,-0.91,-9.31,-9.37,0,*6C
1508594689.87,43446,13.88,73566.8,-0.93,-9.11,-9.53,0,*6D
1508594691.12,43447,13.88,73562.5,-0.93,-9.37,-10.45,0,*57
1508594692.35,43448,13.88,73556.8,-0.93,-10.31,-10.57,0,*65
1508594693.58,43449,13.88,73558.3,-0.93,-10.89,-10.35,0,*63
1508594694.79,43450,13.88,73558.5,-0.95,-11.15,-10.31,0,*6D
1508594696.0,43451,13.88,73552.5,-0.95,-11.45,-10.05,0,*6E
1508594697.25,43452,13.88,73548.3,-0.95,-11.33,-9.37,0,*55
1508594698.44,43453,13.88,73544.0,-0.95,-11.15,-8.93,0,*5F
1508594699.68,43454,13.88,73544.0,-0.97,-10.79,-8.75,0,*59
1508594700.94,43455,13.88,73552.8,-0.97,-11.01,-8.07,0,*53
1508594702.13,43456,13.88,73556.8,-0.99,-9.93,-6.59,0,*69
1508594703.34,43457,13.88,73556.3,-0.99,-8.03,-5.51,0,*6B
1508594704.57,43458,13.88,73556.8,-0.99,-6.77,-5.89,0,*6C
1508594705.76,43459,13.88,73554.8,-0.99,-7.15,-6.13,0,*68
1508594706.98,43460,13.88,73558.0,-0.99,-7.19,-5.73,0,*6B
1508594708.23,43461,13.88,73552.5,-1.01,-6.73,-5.69,0,*5C
1508594709.47,43462,13.88,73552.5,-0.99,-6.23,-6.27,0,*63
1508594710.66,43463,13.88,73548.3,-0.99,-6.59,-6.73,0,*6E
1508594711.88,43464,13.88,73560.3,-0.99,-6.77,-6.63,0,*64
1508594713.07,43465,13.88,73556.8,-0.99,-6.81,-6.39,0,*63
1508594714.27,43466,13.88,73556.8,-0.99,-6.81,-6.47,0,*69
1508594715.49,43467,13.88,73560.0,-1.01,-6.47,-6.89,0,*50
1508594716.74,43468,13.88,73564.0,-1.01,-7.27,-7.83,0,*53
1508594718.02,43469,13.88,73562.3,-1.01,-7.73,-7.99,0,*58
1508594719.22,43470,13.88,73556.8,-1.03,-8.21,-8.37,0,*51
1508594720.44,43471,13.88,73558.8,-1.03,-8.67,-8.11,0,*56
1508594721.67,43472,13.88,73564.8,-1.01,-8.63,-7.83,0,*57
1508594722.92,43473,13.88,73566.0,-1.03,-8.81,-7.57,0,*51
1508594724.17,43474,13.88,73570.3,-1.05,-8.59,-7.57,0,*55
1508594725.42,43475,13.88,73566.0,-1.05,-8.25,-7.31,0,*5F
1508594726.65,43476,13.88,73560.0,-1.07,-8.07,-7.11,0,*5C
1508594727.87,43477,13.88,73560.5,-1.07,-7.61,-6.69,0,*5C
1508594729.08,43478,13.88,73562.0,-1.07,-7.23,-6.47,0,*59
1508594730.28,43479,13.88,73564.3,-1.07,-6.55,-5.97,0,*56
1508594731.5,43480,13.88,73566.3,-1.07,-6.19,-6.05,0,*50
1508594732.75,43481,13.88,73558.5,-1.11,-5.93,-6.19,0,*5A
1508594733.99,43482,13.88,73562.5,-1.07,-5.85,-6.43,0,*56
1508594735.19,43483,13.88,73560.8,-1.07,-5.97,-6.81,0,*5A
1508594736.42,43484,13.88,73562.8,-1.07,-6.31,-7.35,0,*5C
1508594737.62,43485,13.88,73558.0,-1.07,-7.49,-7.83,0,*5E
1508594738.82,43486,13.88,73552.5,-1.07,-8.63,-8.29,0,*55
1508594740.06,43487,13.88,73550.0,-1.07,-9.57,-8.03,0,*5A
1508594741.27,43488,13.88,73548.3,-1.11,-9.27,-6.81,0,*51
1508594742.47,43489,13.88,73546.0,-1.11,-8.17,-5.39,0,*52
1508594743.67,43490,13.88,73550.3,-1.07,-6.43,-4.49,0,*54
1508594744.9,43491,13.88,73558.8,-1.11,-5.31,-4.13,0,*5B
1508594746.11,43492,13.88,73566.5,-1.11,-4.85,-4.09,0,*5D
1508594747.36,43493,13.88,73568.5,-1.11,-4.01,-3.47,0,*5D
1508594748.57,43494,13.88,73568.3,-1.11,-3.43,-3.23,0,*59
1508594749.8,43495,13.88,73568.5,-1.13,-4.05,-3.39,0,*54
1508594751.05,43496,13.88,73570.5,-1.13,-3.63,-3.11,0,*5A
1508594752.27,43497,13.88,73566.3,-1.11,-3.71,-3.19,0,*52
1508594753.49,43498,13.88,73566.3,-1.13,-3.23,-3.03,0,*53
1508594754.68,43499,13.88,73566.8,-1.11,-3.23,-2.99,0,*52
1508594755.89,43500,13.88,73568.3,-1.11,-3.35,-2.99,0,*54
1508594757.11,43501,13.88,73574.0,-1.13,-3.35,-3.23,0,*57
1508594758.33,43502,13.88,73566.3,-1.13,-2.87,-2.79,0,*52
1508594759.56,43503,13.88,73570.5,-1.13,-2.79,-2.99,0,*5C
1508594760.78,43504,13.88,73570.5,-1.13,-2.79,-3.15,0,*5E
1508594761.97,43505,13.88,73568.0,-1.15,-2.91,-3.79,0,*55
1508594763.22,43506,13.88,73570.8,-1.15,-3.55,-4.69,0,*59
1508594764.49,43507,13.88,73572.3,-1.15,-4.01,-4.69,0,*5E
1508594765.72,43508,13.88,73576.8,-1.13,-4.25,-4.57,0,*5C
1508594766.94,43509,13.88,73570.5,-1.13,-4.41,-4.17,0,*5B
1508594768.16,43510,13.88,73568.0,-1.13,-4.29,-3.87,0,*53
1508594769.39,43511,13.88,73564.3,-1.13,-3.75,-3.35,0,*55
1508594770.65,43512,13.88,73566.8,-1.13,-3.63,-3.27,0,*52
1508594771.9,43513,13.88,73570.8,-1.13,-3.47,-3.27,0,*55
1508594773.13,43514,13.88,73578.5,-1.13,-3.15,-3.27,0,*55
1508594774.33,43515,13.88,73578.5,-1.11,-2.99,-3.35,0,*50
1508594775.53,43516,13.88,73570.0,-1.15,-3.39,-3.79,0,*54
1508594776.76,43517,13.88,73558.8,-1.15,-3.51,-3.91,0,*5D
1508594778.01,43518,13.88,73564.3,-1.15,-3.51,-4.01,0,*5C
1508594779.24,43519,13.88,73564.3,-1.15,-3.67,-4.17,0,*5F
1508594780.45,43520,13.88,73564.0,-1.15,-3.91,-4.57,0,*58
1508594781.68,43521,13.88,73566.0,-1.15,-4.41,-4.89,0,*50
1508594782.92,43522,13.88,73562.8,-1.15,-4.69,-4.77,0,*58
1508594784.12,43523,13.88,73556.8,-1.15,-4.41,-4.41,0,*56
1508594785.32,43524,13.88,73560.0,-1.15,-4.29,-4.17,0,*5C
1508594786.55,43525,13.88,73558.8,-1.15,-4.05,-4.01,0,*54
1508594787.76,43526,13.88,73562.8,-1.15,-3.75,-4.13,0,*54
1508594788.97,43527,13.88,73562.8,-1.15,-3.75,-4.41,0,*52
1508594790.2,43528,13.88,73566.8,-1.15,-4.29,-5.07,0,*50
1508594791.45,43529,13.88,73572.5,-1.15,-4.69,-4.93,0,*59
1508594792.7,43530,13.88,73568.8,-1.15,-4.89,-5.03,0,*57
1508594793.96,43531,13.88,73560.5,-1.15,-5.69,-5.31,0,*58
1508594795.21,43532,13.88,73562.3,-1.13,-5.43,-5.15,0,*53
1508594796.41,43533,13.88,73558.5,-1.15,-4.53,-4.57,0,*53
1508594797.62,43534,13.88,73560.3,-1.15,-4.25,-4.57,0,*55
1508594798.82,43535,13.88,73564.0,-1.15,-4.33,-4.33,0,*51
1508594800.02,43536,13.88,73560.5,-1.15,-4.29,-4.17,0,*5F
1508594801.22,43537,13.88,73566.3,-1.15,-4.05,-3.79,0,*5F
1508594802.43,43538,13.88,73570.8,-1.15,-3.79,-3.79,0,*5C
1508594803.64,43539,13.88,73572.3,-1.15,-3.75,-3.87,0,*50
1508594804.87,43540,13.88,73568.8,-1.15,-3.63,-4.13,0,*53
1508594806.13,43541,13.88,73564.5,-1.15,-4.01,-4.81,0,*5A
1508594807.33,43542,13.88,73574.0,-1.15,-4.65,-6.09,0,*59
1508594808.6,43543,13.88,73574.5,-1.13,-6.27,-7.57,0,*50
1508594809.85,43544,13.88,73570.8,-1.13,-7.83,-7.73,0,*5E
1508594811.08,43545,13.88,73574.8,-1.13,-8.67,-7.87,0,*51
1508594812.33,43546,13.88,73566.0,-1.13,-9.19,-7.65,0,*56
1508594813.58,43547,13.88,73564.5,-1.13,-9.19,-7.05,0,*51
1508594814.83,43548,13.88,73566.3,-1.13,-8.81,-6.47,0,*59
1508594816.09,43549,13.88,73572.5,-1.15,-8.11,-5.85,0,*5A
1508594817.33,43550,13.88,73570.8,-1.17,-7.43,-5.11,0,*55
1508594818.56,43551,13.88,73568.5,-1.15,-6.13,-4.01,0,*52
1508594819.79,43552,13.88,73552.0,-1.17,-4.81,-3.63,0,*59
1508594821.04,43553,13.88,73544.3,-1.15,-4.01,-3.63,0,*52
1508594822.25,43554,13.88,73552.8,-1.19,-4.17,-3.95,0,*57
1508594823.46,43555,13.88,73558.5,-1.19,-4.45,-4.33,0,*5A
1508594824.67,43556,13.88,73552.0,-1.19,-4.41,-4.33,0,*5D
1508594825.88,43557,13.88,73554.3,-1.21,-4.21,-4.25,0,*56
1508594827.1,43558,13.88,73562.3,-1.21,-3.87,-4.01,0,*54
1508594828.29,43559,13.88,73564.5,-1.21,-4.13,-4.09,0,*57
1508594829.5,43560,13.88,73570.5,-1.21,-3.87,-3.71,0,*5F
1508594830.74,43561,13.88,73580.5,-1.19,-4.09,-3.71,0,*54
1508594831.95,43562,13.88,73576.8,-1.21,-4.77,-4.21,0,*57
1508594833.21,43563,13.88,73574.0,-1.19,-4.73,-3.67,0,*5C
1508594834.44,43564,13.88,73572.8,-1.19,-4.61,-3.47,0,*5A
1508594835.68,43565,13.88,73570.0,-1.19,-4.69,-3.27,0,*55
1508594836.88,43566,13.88,73570.8,-1.19,-4.45,-2.91,0,*54
1508594838.12,43567,13.88,73570.0,-1.19,-4.45,-2.75,0,*5F
1508594839.37,43568,13.88,73572.0,-1.19,-3.95,-2.67,0,*59
1508594840.57,43569,13.88,73574.0,-1.17,-4.05,-2.95,0,*55
1508594841.77,43570,13.88,73570.8,-1.17,-3.83,-2.95,0,*54
1508594842.98,43571,13.88,73568.0,-1.17,-3.51,-2.79,0,*58
1508594844.21,43572,13.88,73568.3,-1.17,-2.95,-2.67,0,*5D
1508594845.47,43573,13.88,73566.8,-1.15,-2.63,-2.51,0,*52
1508594846.71,43574,13.88,73566.8,-1.17,-2.75,-2.63,0,*51
1508594847.97,43575,13.88,73574.8,-1.15,-2.63,-2.59,0,*5C
1508594849.23,43576,13.88,73582.3,-1.15,-2.47,-2.51,0,*51
1508594850.47,43577,13.88,73586.8,-1.17,-2.51,-2.63,0,*54
1508594851.69,43578,13.88,73584.0,-1.17,-2.75,-3.03,0,*5A
1508594852.9,43579,13.88,73576.3,-1.17,-3.15,-3.59,0,*53
1508594854.11,43580,13.88,73578.5,-1.15,-3.39,-4.05,0,*57
1508594855.31,43581,13.88,73578.5,-1.15,-3.39,-4.13,0,*51
1508594856.54,43582,13.88,73578.3,-1.15,-3.55,-4.45,0,*5B
1508594857.77,43583,13.88,73568.0,-1.15,-3.87,-4.89,0,*55
1508594858.99,43584,13.88,73564.3,-1.17,-4.17,-5.27,0,*5B
1508594860.21,43585,13.88,73570.0,-1.17,-4.57,-5.65,0,*58
1508594861.44,43586,13.88,73564.8,-1.17,-4.81,-5.73,0,*57
1508594862.67,43587,13.88,73568.5,-1.17,-4.85,-5.65,0,*55
1508594863.9,43588,13.88,73562.0,-1.17,-4.93,-5.77,0,*5E
1508594865.12,43589,13.88,73552.8,-1.17,-5.07,-6.01,0,*51
1508594866.31,43590,13.88,73554.5,-1.17,-5.47,-6.43,0,*5B
1508594867.56,43591,13.88,73560.5,-1.17,-6.19,-6.63,0,*50
1508594868.77,43592,13.88,73566.5,-1.17,-6.39,-6.27,0,*51
1508594870.01,43593,13.88,73568.3,-1.17,-6.27,-6.19,0,*52
1508594871.23,43594,13.88,73576.3,-1.19,-6.39,-6.31,0,*5E
1508594872.44,43595,13.88,73572.8,-1.19,-6.69,-6.13,0,*5A
1508594873.69,43596,13.88,73566.0,-1.19,-6.13,-5.07,0,*52
1508594874.89,43597,13.88,73568.3,-1.17,-5.51,-4.57,0,*5C
1508594876.08,43598,13.88,73570.8,-1.17,-4.99,-4.29,0,*5F
1508594877.26,43599,13.88,73562.5,-1.17,-4.49,-3.95,0,*53
1508594878.48,43600,13.88,73556.0,-1.19,-4.17,-3.91,0,*51
1508594879.7,43601,13.88,73556.5,-1.15,-4.05,-4.01,0,*51
1508594880.9,43602,13.88,73548.3,-1.17,-4.29,-4.21,0,*5C
1508594882.1,43603,13.88,73542.0,-1.15,-4.05,-4.17,0,*54
1508594883.32,43604,13.88,73534.8,-1.17,-3.59,-4.05,0,*5C
1508594884.55,43605,13.88,73556.3,-1.15,-3.35,-4.01,0,*51
1508594885.74,43606,13.88,73560.8,-1.17,-3.39,-4.17,0,*5B
1508594886.93,43607,13.88,73556.5,-1.17,-3.39,-4.25,0,*5B
1508594888.16,43608,13.88,73552.5,-1.15,-3.51,-4.41,0,*5A
1508594889.39,43609,13.88,73554.8,-1.15,-3.67,-4.41,0,*5E
1508594890.63,43610,13.88,73558.8,-1.15,-3.91,-4.81,0,*53
1508594891.88,43611,13.88,73554.8,-1.13,-4.41,-4.89,0,*56
1508594893.11,43612,13.88,73564.8,-1.13,-4.57,-4.57,0,*51
1508594894.36,43613,13.88,73570.5,-1.13,-4.65,-4.77,0,*53
1508594895.58,43614,13.88,73574.8,-1.11,-5.43,-5.31,0,*50
1508594896.78,43615,13.88,73572.5,-1.11,-6.05,-5.39,0,*58
1508594898.0,43616,13.88,73576.3,-1.11,-6.31,-4.89,0,*56
1508594899.23,43617,13.88,73570.3,-1.11,-5.65,-4.53,0,*52
1508594900.45,43618,13.88,73574.5,-1.11,-4.65,-4.73,0,*5E
1508594901.65,43619,13.88,73572.5,-1.07,-4.49,-4.61,0,*55
1508594902.85,43620,13.88,73576.5,-1.07,-4.53,-4.65,0,*50
1508594904.08,43621,13.88,73568.5,-1.07,-4.65,-5.15,0,*52
1508594905.36,43622,13.88,73570.8,-1.05,-5.23,-5.89,0,*55
1508594906.61,43623,13.88,73574.5,-1.07,-5.81,-6.23,0,*5D